Weather in Zeledeyevo

Russia / Kemerovo Oblast     56°02′19″N   84°52′22″E
temp.,
°C
wind,
m/s
gust,
m/s
humid.,
%
clouds,
%
prec.,
mm/h
press.,
hPa
HPBL,
m
16 october, sat
sat1601:00+1ne11823 0.0 103610
04:00+1nne22820 0.0 103412
07:000nne22860 0.0 103411
10:00+3ne12750 0.0 1032112
13:00+8nne23620 0.0 1031371
16:00+9nne33620 0.0 1029483
19:00+5ne22840 0.0 102911
22:00+3ene22870 0.0 102812
17 october, sun
sun1701:00+2ene12860 0.0 102810
04:00+1ene228671 0.0 102710
07:000ene228581 0.0 102712
10:00+3e226441 0.0 1027121
13:00+7ese124965 0.0 1026379
16:00+8sse114792 0.0 1025474
19:00+4sse116278 0.0 102510
22:00+3ssw227059 0.0 102517
18 october, mon
mon1801:00+2ssw227440 0.0 102523
04:00+1ssw227646 0.0 102523
07:000sw338390 0.0 102528
10:00+3sw357779 0.0 1025178
13:00+6sw356298 0.0 1025488
16:00+7wsw346181 0.0 1025625
19:00+4sw337986 0.0 102530
22:00+4sw34819 0.0 102677
19 october, tue
tue1901:00+2ssw338933 0.0 102643
04:00+2ssw33905 0.0 102644
07:00+1ssw34925 0.0 102764
10:00+4ssw37835 0.0 1027193
13:00+8sw466599 0.0 1027509
16:00+9ssw3664100 0.0 1026556
19:00+6ssw3577100 0.0 102670
22:00+5ssw3480100 0.0 102675
20 october, wed
wed2001:00+4ssw3380100 0.0 102550
04:00+3ssw22835 0.0 102517
07:00+3s22845 0.0 102416
10:00+5sse24755 0.0 1024111
13:00+9sse235337 0.0 1022372
16:00+11se245128 0.0 1020426
19:00+6se336722 0.0 102026
22:00+5sse337279 0.0 101934